[[{"header":{"parameterUnit":"m.s-1","parameterCategory":2,"la1":30.2991,"la2":30.254,"lo1":-89.0895,"lo2":-89.0444,"dy":0.0017,"dx":0.0017,"nx":28,"ny":28,"refTime":"2024-05-27T21:00:00:Z","depth":"0","parameterNumber":2,"parameterNumberName":"U-component_of_CURRENTS"},"data":[0,0,0,0,0,0,0,0,0,0,0,0,0,0,0,0,0,0,0,0,0,0,0,0,0,0,0,0,0,0,0,0,0,0,0,0,0,0,0,0,0,0,0,0,0,0,0,0,0,0,0,0,0,0,0,0,0,0,0.3598,0.36,0,0.3817,0.3819,0.3822,0.3867,0.3865,0.3864,0.3862,0.3885,0.3887,0.3889,0,0,0,0,0,0,0,0,0,0,0,0,0,0.3368,0.3371,0.3597,0.36,0.3603,0.3817,0.382,0.3822,0.3867,0.3865,0.3863,0.3862,0.3885,0.3887,0.389,0,0,0,0,0,0,0,0,0,0,0,0,0,0.3514,0.3372,0.3597,0.3652,0.3659,0.3816,0.382,0.3823,0.3868,0.3865,0.3863,0.3861,0.3884,0.3887,0.389,0.3956,0,0,0.3899,0.3901,0,0,0,0,0,0,0,0,0.3506,0.3522,0.3641,0.3648,0.3657,0.3813,0.3748,0.3858,0.3868,0.3787,0.3862,0.386,0.3845,0.3852,0.3899,0.3957,0.3958,0.39,0.3902,0.3903,0.3904,0,0,0,0,0,0,0,0.3495,0.3514,0.3683,0.3644,0.3654,0.3718,0.3734,0.377,0.3822,0.3794,0.3798,0.3825,0.3848,0.3896,0.39,0.3958,0.39,0.3902,0.3904,0.3905,0.3967,0.3967,0,0,0,0,0,0,0.3466,0.3504,0.3676,0.369,0.3575,0.3723,0.3742,0.3764,0.3826,0.3836,0.3827,0.3827,0.3892,0.3896,0.39,0.3915,0.3903,0.3906,0.3908,0.3967,0.3967,0.3967,0,0,0,0,0,0,0.346,0.3479,0.3667,0.3603,0.3631,0.3728,0.3754,0.377,0.3815,0.3854,0.3858,0.3855,0.3891,0.3896,0.3923,0.3918,0.3907,0.391,0.3967,0.3967,0.3967,0.3986,0,0,0,0,0,0,0.3453,0.3476,0.3491,0.3601,0.3634,0.3761,0.3757,0.3776,0.3836,0.3837,0.3879,0.388,0.3889,0.3919,0.3926,0.3922,0.3912,0.3968,0.3967,0.3967,0.3986,0.3987,0.3987,0,0,0,0,0,0.3444,0.3485,0.349,0.3512,0.3649,0.3763,0.3787,0.3847,0.3839,0.3875,0.3887,0.3878,0.3919,0.3923,0.3931,0.3927,0.3968,0.3967,0.3967,0.3986,0.3987,0.3987,0,0,0,0,0,0,0.3406,0.3497,0.3505,0.3572,0.3654,0.3771,0.3825,0.3852,0.39,0.3891,0.3901,0.3905,0.3921,0.3925,0.3927,0.3939,0.3933,0.3934,0.3944,0.3945,0.3946,0.3922,0.3915,0,0,0,0,0,0.34,0.3445,0.354,0.3594,0.3637,0.3725,0.378,0.3819,0.3876,0.3898,0.3921,0.3928,0.3933,0.3938,0.3956,0.3982,0.401,0.3974,0.3975,0.3976,0.396,0.4004,0.4008,0.3965,0.3965,0.3965,0,0,0.3395,0.3457,0.3479,0.3588,0.3659,0.3734,0.3753,0.3844,0.3875,0.3889,0.3935,0.3944,0.3942,0.3963,0.3967,0.3961,0.4012,0.3975,0.3976,0.3959,0.4004,0.4009,0.4013,0.3965,0.3965,0.3965,0,0,0.3427,0.3469,0.352,0.3591,0.3697,0.3753,0.3772,0.3881,0.3895,0.395,0.3943,0.3949,0.3988,0.3977,0.3972,0.3988,0.4018,0.3985,0.3971,0.4015,0.4019,0.4023,0.4109,0.412,0.3981,0.3981,0.3981,0,0.3411,0.349,0.3555,0.3632,0.3683,0.3753,0.3814,0.3859,0.3951,0.3947,0.3955,0.3985,0.3987,0.3978,0.3972,0.3989,0.4036,0.3973,0.4018,0.4022,0.4026,0.4112,0.4124,0.3981,0.3981,0.3981,0.3981,0,0.348,0.3548,0.3595,0.369,0.3752,0.3827,0.3887,0.3923,0.394,0.3968,0.3975,0.3994,0.4,0.3996,0.3988,0.3997,0.4034,0.4023,0.4021,0.4032,0.4122,0.4135,0.3983,0.3982,0.3982,0.3982,0,0,0.3412,0.3598,0.3607,0.3658,0.3782,0.3837,0.3878,0.3925,0.393,0.3981,0.3991,0.3983,0.3988,0.398,0.3978,0.3998,0.4077,0.4016,0.4018,0.411,0.4219,0.4244,0.426,0.4085,0.4086,0.4086,0.429,0,0.3435,0.3566,0.3647,0.3745,0.3815,0.3874,0.3903,0.3941,0.3964,0.3996,0.3986,0.4007,0.3983,0.3993,0.4007,0.4062,0.4103,0.4025,0.4185,0.419,0.4217,0.4271,0.4049,0.4209,0.4302,0.4304,0.4305,0,0.3453,0.3544,0.364,0.3761,0.379,0.3842,0.3875,0.3917,0.3955,0.3972,0.3987,0.4009,0.4038,0.4025,0.4123,0.4082,0.4142,0.4185,0.4194,0.4208,0.4235,0.4202,0.4228,0.4114,0.4325,0.4323,0.4322,0,0.3357,0.3523,0.3586,0.3635,0.3781,0.3796,0.3851,0.3893,0.3914,0.3967,0.4006,0.4039,0.4092,0.4146,0.4235,0.4191,0.4377,0.4334,0.4418,0.4423,0.4255,0.4243,0.4184,0.4405,0.4404,0.4404,0.4403,0,0.334,0.3395,0.3548,0.3589,0.3645,0.3743,0.3781,0.3828,0.3894,0.3934,0.399,0.4052,0.4124,0.4236,0.4284,0.4417,0.443,0.4431,0.4471,0.4262,0.4248,0.4157,0.412,0.4412,0.441,0.4408,0.4407,0,0.3248,0.3351,0.3439,0.3574,0.3616,0.3646,0.3773,0.3797,0.3868,0.3935,0.3963,0.4096,0.4252,0.435,0.449,0.4506,0.449,0.4653,0.443,0.4438,0.4366,0.4339,0.4206,0.409,0.4762,0.4764,0.4765,0,0.3217,0.3254,0.3404,0.3449,0.352,0.3598,0.3653,0.3763,0.3808,0.3964,0.4001,0.4182,0.4286,0.4537,0.4605,0.4734,0.4575,0.4612,0.4454,0.4346,0.4346,0.4167,0.4063,0.4265,0.4263,0.426,0.4259,0,0.3152,0.3197,0.3276,0.3372,0.3444,0.3529,0.3625,0.3655,0.3782,0.3855,0.3981,0.4079,0.4338,0.4389,0.4589,0.4618,0.4364,0.4573,0.4479,0.3972,0.3748,0.366,0.4196,0.4238,0.424,0.4242,0.4243,0.4244,0.3083,0.3112,0.3205,0.3291,0.3366,0.3419,0.3432,0.3545,0.3608,0.3684,0.3874,0.3961,0.4122,0.4363,0.439,0.4296,0.4297,0.4147,0.4143,0.3987,0.378,0.4316,0.4388,0.4391,0.4393,0.4395,0.4397,0,0.2997,0.3052,0.3122,0.32,0.3221,0.3309,0.3379,0.3357,0.3388,0.3548,0.364,0.3729,0.3805,0.3914,0.3965,0.3866,0.3629,0.3761,0.3393,0.3329,0.3817,0.3699,0.3597,0.3597,0.3598,0.3598,0.3598,0.3598,0.2949,0.2987,0.3036,0.304,0.3078,0.3047,0.305,0.305,0.312,0.3154,0.3206,0.3327,0.3524,0.3642,0.3564,0.3475,0.3212,0.3074,0.3126,0.3417,0.3448,0.3477,0.3352,0.318,0.318,0.2406,0.24,0.2396]},{"header":{"parameterUnit":"m.s-1","parameterCategory":2,"la1":30.2991,"la2":30.254,"lo1":-89.0895,"lo2":-89.0444,"dy":0.0017,"dx":0.0017,"nx":28,"ny":28,"refTime":"2024-05-27T21:00:00:Z","depth":"0","parameterNumber":3,"parameterNumberName":"V-component_of_CURRENTS"},"data":[0,0,0,0,0,0,0,0,0,0,0,0,0,0,0,0,0,0,0,0,0,0,0,0,0,0,0,0,0,0,0,0,0,0,0,0,0,0,0,0,0,0,0,0,0,0,0,0,0,0,0,0,0,0,0,0,0,0,-0.0274,-0.0276,0,-0.0458,-0.0461,-0.0463,-0.0521,-0.052,-0.0518,-0.0517,-0.0638,-0.0642,-0.0646,0,0,0,0,0,0,0,0,0,0,0,0,0,-0.0103,-0.0105,-0.0274,-0.0276,-0.0278,-0.0458,-0.0461,-0.0464,-0.0521,-0.0519,-0.0518,-0.0517,-0.0636,-0.0641,-0.0646,0,0,0,0,0,0,0,0,0,0,0,0,0,-0.0223,-0.0106,-0.0273,-0.0326,-0.0333,-0.0458,-0.0461,-0.0464,-0.0521,-0.0519,-0.0518,-0.0516,-0.0635,-0.0641,-0.0647,-0.0719,0,0,-0.0666,-0.0669,0,0,0,0,0,0,0,0,-0.0216,-0.023,-0.0316,-0.0323,-0.033,-0.0463,-0.0445,-0.0546,-0.0522,-0.0452,-0.0517,-0.0515,-0.0573,-0.0584,-0.0627,-0.0725,-0.073,-0.0667,-0.0671,-0.0673,-0.0675,0,0,0,0,0,0,0,-0.0208,-0.0223,-0.0349,-0.0319,-0.0327,-0.0386,-0.04,-0.0465,-0.052,-0.0458,-0.0462,-0.0479,-0.0576,-0.0621,-0.063,-0.0732,-0.0667,-0.0672,-0.0676,-0.0679,-0.0826,-0.0827,0,0,0,0,0,0,-0.0175,-0.0214,-0.0343,-0.0355,-0.0265,-0.039,-0.0406,-0.0424,-0.0521,-0.0534,-0.0481,-0.0481,-0.0611,-0.0622,-0.0634,-0.066,-0.0673,-0.0679,-0.0683,-0.0826,-0.0826,-0.0827,0,0,0,0,0,0,-0.0171,-0.0185,-0.0336,-0.0287,-0.0309,-0.0393,-0.0414,-0.0428,-0.047,-0.0538,-0.055,-0.0505,-0.061,-0.0625,-0.0687,-0.0667,-0.0682,-0.0688,-0.0826,-0.0826,-0.0827,-0.0753,0,0,0,0,0,0,-0.0165,-0.0183,-0.0195,-0.0284,-0.0311,-0.0416,-0.0416,-0.0433,-0.0482,-0.0485,-0.0564,-0.0574,-0.061,-0.0677,-0.0693,-0.0676,-0.0693,-0.0826,-0.0826,-0.0826,-0.0755,-0.0751,-0.0747,0,0,0,0,0,-0.0159,-0.0185,-0.0194,-0.021,-0.0321,-0.0418,-0.0439,-0.0494,-0.0484,-0.0521,-0.0557,-0.0571,-0.0688,-0.0684,-0.0702,-0.0686,-0.0826,-0.0826,-0.0826,-0.0757,-0.0752,-0.0747,0,0,0,0,0,0,-0.0128,-0.0196,-0.0207,-0.0254,-0.0329,-0.0426,-0.0469,-0.0495,-0.0558,-0.0551,-0.0596,-0.0611,-0.0653,-0.069,-0.0683,-0.0729,-0.0751,-0.0755,-0.0692,-0.0688,-0.0683,-0.0639,-0.0698,0,0,0,0,0,-0.0122,-0.015,-0.0232,-0.027,-0.0307,-0.0384,-0.0429,-0.0465,-0.0527,-0.0554,-0.06,-0.064,-0.0674,-0.0695,-0.0747,-0.0789,-0.0799,-0.0784,-0.078,-0.0776,-0.0753,-0.077,-0.0765,-0.0827,-0.0827,-0.0827,0,0,-0.0118,-0.016,-0.0176,-0.0264,-0.0326,-0.0377,-0.0409,-0.0481,-0.0497,-0.0557,-0.0597,-0.0641,-0.0685,-0.0722,-0.0741,-0.0745,-0.0763,-0.0776,-0.0772,-0.0751,-0.077,-0.0763,-0.0758,-0.0828,-0.0828,-0.0828,0,0,-0.0122,-0.0166,-0.0188,-0.025,-0.0335,-0.0384,-0.0397,-0.0491,-0.0509,-0.0566,-0.0587,-0.0616,-0.0697,-0.0707,-0.0721,-0.0729,-0.0747,-0.0744,-0.068,-0.0697,-0.0691,-0.0686,-0.0681,-0.0676,-0.0732,-0.0732,-0.0732,0,-0.0107,-0.0144,-0.0216,-0.026,-0.0292,-0.0375,-0.0402,-0.045,-0.0541,-0.053,-0.0566,-0.0631,-0.068,-0.0673,-0.0669,-0.0715,-0.0723,-0.0692,-0.0688,-0.0684,-0.068,-0.0676,-0.0671,-0.0728,-0.0729,-0.0729,-0.0729,0,-0.012,-0.016,-0.0188,-0.0247,-0.0302,-0.0348,-0.0412,-0.0445,-0.0468,-0.0491,-0.0506,-0.058,-0.0601,-0.0622,-0.065,-0.0632,-0.0646,-0.0687,-0.0693,-0.0669,-0.0666,-0.0663,-0.0723,-0.0724,-0.0725,-0.0726,0,0,-0.0043,-0.0162,-0.0166,-0.0184,-0.0288,-0.0324,-0.0353,-0.0378,-0.0345,-0.0431,-0.0389,-0.0461,-0.0482,-0.0499,-0.054,-0.0553,-0.054,-0.0597,-0.06,-0.0574,-0.0557,-0.0502,-0.0494,-0.0581,-0.0581,-0.058,-0.0562,0,-0.0017,-0.0058,-0.0132,-0.0166,-0.0193,-0.0267,-0.0274,-0.0302,-0.0321,-0.0312,-0.0356,-0.0354,-0.0439,-0.0434,-0.0467,-0.0519,-0.0529,-0.0539,-0.0598,-0.0599,-0.054,-0.0487,-0.0434,-0.0407,-0.0558,-0.0558,-0.0557,0,0.0014,-0.0014,-0.003,-0.0089,-0.0103,-0.0125,-0.0112,-0.0136,-0.0143,-0.0151,-0.0168,-0.0211,-0.0231,-0.0317,-0.0391,-0.0394,-0.0462,-0.0513,-0.0515,-0.0481,-0.0537,-0.0461,-0.0396,-0.0582,-0.0552,-0.0553,-0.0553,0,0.0144,0.0062,0.0073,0.0044,-0.0036,-0.0023,-0.0047,-0.0059,-0.0032,-0.0033,0.0001,-0.0066,-0.0065,-0.018,-0.0294,-0.0341,-0.0366,-0.0453,-0.0466,-0.0463,-0.0434,-0.0429,-0.0538,-0.0498,-0.0498,-0.0498,-0.0498,0,0.0211,0.0212,0.0141,0.0146,0.019,0.0092,0.0154,0.0132,0.0135,0.0212,0.0104,0.0164,-0.003,-0.0076,-0.0225,-0.0305,-0.0318,-0.0422,-0.0445,-0.0407,-0.0399,-0.0575,-0.0695,-0.0497,-0.0498,-0.0498,-0.0498,0,0.0324,0.0274,0.0288,0.0247,0.0245,0.0284,0.0273,0.0326,0.0307,0.0402,0.0415,0.0361,0.0317,0.0135,-0.0014,-0.017,-0.0361,-0.0314,-0.0237,-0.025,-0.0451,-0.0567,-0.0651,-0.0726,-0.033,-0.0329,-0.0327,0,0.037,0.0388,0.0395,0.0429,0.0412,0.0441,0.0477,0.0437,0.0496,0.0551,0.0626,0.061,0.0648,0.0447,0.0192,-0.0026,-0.025,-0.0158,-0.0248,-0.0418,-0.0566,-0.0652,-0.0717,-0.0187,-0.0185,-0.0183,-0.0182,0,0.0463,0.0479,0.0499,0.0577,0.0626,0.0666,0.0711,0.0785,0.0779,0.0881,0.1015,0.1054,0.0886,0.0709,0.0389,0.021,-0.0267,-0.0123,-0.0332,-0.0467,-0.0535,-0.0631,-0.0242,-0.0164,-0.0166,-0.0167,-0.0168,-0.0169,0.055,0.0602,0.0647,0.0721,0.079,0.0886,0.0962,0.1042,0.1181,0.1356,0.1356,0.1486,0.1132,0.0734,0.0446,-0.0058,-0.0105,-0.0251,-0.0375,-0.0445,-0.0519,-0.0063,0.0005,0.0004,0.0003,0.0003,0.0002,0,0.0639,0.0691,0.0774,0.0875,0.0983,0.098,0.1113,0.1216,0.1436,0.1632,0.1789,0.1732,0.1306,0.0799,0.0117,-0.0264,-0.0438,-0.0499,-0.0652,-0.0709,-0.0324,-0.0322,-0.0281,-0.028,-0.028,-0.028,-0.028,-0.028,0.0693,0.0787,0.0828,0.1019,0.1098,0.1247,0.1341,0.1526,0.1689,0.1974,0.2103,0.2155,0.1752,0.0465,-0.0426,-0.0637,-0.0936,-0.0954,-0.1142,-0.094,-0.0928,-0.0918,-0.0945,-0.1035,-0.1036,-0.1466,-0.147,-0.1474]}],[{"header":{"parameterUnit":"m.s-1","parameterCategory":2,"la1":30.2991,"la2":30.254,"lo1":-89.0895,"lo2":-89.0444,"dy":0.0017,"dx":0.0017,"nx":28,"ny":28,"refTime":"2024-05-27T21:00:00:Z","depth":"2","parameterNumber":2,"parameterNumberName":"U-component_of_CURRENTS"},"data":[0,0,0,0,0,0,0,0,0,0,0,0,0,0,0,0,0,0,0,0,0,0,0,0,0,0,0,0,0,0,0,0,0,0,0,0,0,0,0,0,0,0,0,0,0,0,0,0,0,0,0,0,0,0,0,0,0,0,0.2498,0.2498,0,0.2485,0.2485,0.2486,0.2499,0.2499,0.2499,0.25,0.2713,0.2718,0.2724,0,0,0,0,0,0,0,0,0,0,0,0,0,0.252,0.252,0.2498,0.2498,0.2497,0.2485,0.2485,0.2486,0.2499,0.2499,0.2499,0.25,0.2711,0.2717,0.2724,0,0,0,0,0,0,0,0,0,0,0,0,0,0.2513,0.252,0.2499,0.25,0.2499,0.2485,0.2485,0.2486,0.2499,0.2499,0.25,0.25,0.2709,0.2717,0.2725,0.2771,0,0,0.275,0.2754,0,0,0,0,0,0,0,0,0.2513,0.2512,0.25,0.25,0.2499,0.2491,0.2571,0.2591,0.2499,0.2503,0.25,0.25,0.2657,0.2669,0.2669,0.2781,0.279,0.2751,0.2756,0.276,0.2762,0,0,0,0,0,0,0,0.2513,0.2513,0.2497,0.2499,0.2499,0.2495,0.2495,0.2574,0.2586,0.2503,0.2503,0.2495,0.2659,0.266,0.2674,0.2793,0.2751,0.2758,0.2763,0.2766,0.3019,0.3021,0,0,0,0,0,0,0.2508,0.2513,0.2498,0.2496,0.2502,0.2495,0.2495,0.2496,0.258,0.259,0.2495,0.2496,0.2646,0.2665,0.2682,0.2896,0.2759,0.2767,0.2772,0.3017,0.302,0.3021,0,0,0,0,0,0,0.2509,0.2507,0.2498,0.2501,0.2499,0.2494,0.2496,0.2496,0.2526,0.2571,0.2586,0.2528,0.2647,0.2671,0.2797,0.2899,0.2771,0.2778,0.3015,0.3018,0.3021,0.3227,0,0,0,0,0,0,0.2509,0.2508,0.2525,0.2501,0.2498,0.2542,0.2495,0.2495,0.2517,0.2519,0.2605,0.2622,0.2649,0.2785,0.2805,0.2908,0.2785,0.3013,0.3017,0.302,0.3218,0.3236,0.3252,0,0,0,0,0,0.251,0.2538,0.2526,0.2524,0.2517,0.2545,0.2547,0.2544,0.2519,0.2566,0.2613,0.2621,0.2818,0.2795,0.2818,0.2926,0.3012,0.3016,0.3019,0.321,0.3233,0.3252,0,0,0,0,0,0,0.255,0.2541,0.2527,0.2548,0.2566,0.2547,0.2571,0.2563,0.2628,0.2637,0.2669,0.2693,0.2841,0.2834,0.2805,0.2993,0.2906,0.2915,0.3043,0.3065,0.3082,0.3026,0.2792,0,0,0,0,0,0.2564,0.2606,0.2578,0.2615,0.2605,0.259,0.2601,0.2608,0.2643,0.2668,0.2736,0.279,0.2867,0.2927,0.2993,0.3113,0.3087,0.3179,0.3197,0.3212,0.3175,0.3217,0.3235,0.3034,0.3034,0.3034,0,0,0.2573,0.2595,0.2604,0.263,0.2624,0.2668,0.2601,0.2638,0.2713,0.2689,0.2837,0.2874,0.2909,0.3049,0.311,0.3066,0.3269,0.3217,0.3231,0.3184,0.3223,0.3243,0.326,0.3037,0.3037,0.3036,0,0,0.2618,0.264,0.2662,0.2709,0.2733,0.2747,0.2766,0.2782,0.2823,0.2951,0.2947,0.3019,0.3166,0.3194,0.3224,0.336,0.3361,0.3403,0.3463,0.3508,0.3525,0.3539,0.3601,0.3618,0.341,0.341,0.341,0,0.2629,0.267,0.268,0.2739,0.279,0.2791,0.2841,0.2899,0.2982,0.3016,0.3033,0.3175,0.3221,0.333,0.3378,0.3406,0.3434,0.3403,0.3534,0.3547,0.3558,0.3616,0.3633,0.3421,0.3419,0.3418,0.3417,0,0.2689,0.274,0.277,0.2858,0.2927,0.299,0.3051,0.3137,0.3189,0.3222,0.3349,0.3396,0.3453,0.3504,0.3498,0.3603,0.3604,0.3564,0.3492,0.3592,0.3646,0.3661,0.3435,0.3432,0.3429,0.3426,0,0,0.2649,0.2773,0.2789,0.2846,0.3002,0.305,0.3205,0.3293,0.3352,0.3466,0.3544,0.3658,0.3632,0.3653,0.3661,0.3694,0.3835,0.3675,0.3673,0.3752,0.3973,0.3834,0.3835,0.3847,0.3849,0.3851,0.4005,0,0.2679,0.2783,0.2876,0.3023,0.3062,0.3186,0.3322,0.3433,0.3521,0.3621,0.365,0.3738,0.3712,0.3744,0.3785,0.3816,0.3871,0.3797,0.3843,0.3844,0.3722,0.3845,0.3535,0.3632,0.4019,0.4021,0.4022,0,0.2694,0.2771,0.2873,0.3062,0.309,0.3213,0.3399,0.3521,0.3658,0.3718,0.3792,0.3825,0.3909,0.3857,0.3964,0.3935,0.3959,0.3971,0.3977,0.3761,0.3727,0.3577,0.3642,0.4045,0.4043,0.4042,0.404,0,0.2625,0.2785,0.2868,0.2945,0.3143,0.3234,0.3362,0.3524,0.3606,0.3761,0.3812,0.3927,0.3971,0.4035,0.4091,0.4047,0.4203,0.4139,0.4037,0.403,0.3716,0.3675,0.4194,0.4194,0.4194,0.4193,0.4193,0,0.2633,0.2704,0.2832,0.2893,0.3007,0.3181,0.332,0.3447,0.3607,0.3688,0.3824,0.387,0.4013,0.4122,0.4159,0.4166,0.4271,0.4052,0.4054,0.3785,0.375,0.4033,0.4012,0.4199,0.4198,0.4197,0.4196,0,0.2548,0.2632,0.2729,0.2911,0.2967,0.3053,0.3284,0.3364,0.3526,0.364,0.3692,0.386,0.3961,0.4116,0.4236,0.4213,0.426,0.4236,0.3927,0.3884,0.4039,0.4028,0.4105,0.4101,0.4098,0.4095,0.4093,0,0.2521,0.2541,0.2698,0.2746,0.2834,0.2977,0.3066,0.3284,0.3367,0.3591,0.3613,0.3775,0.3822,0.3986,0.4003,0.4086,0.4189,0.3844,0.3639,0.4033,0.4029,0.4022,0.4014,0.3356,0.3348,0.3342,0.3336,0,0.2456,0.2494,0.2565,0.2646,0.2739,0.2848,0.2997,0.3037,0.3274,0.3343,0.3442,0.3506,0.3635,0.3543,0.3672,0.3662,0.3804,0.37,0.4231,0.34,0.3331,0.3325,0.3342,0.3277,0.3283,0.3287,0.3291,0.3293,0.2399,0.2417,0.2487,0.256,0.2638,0.2698,0.2735,0.2855,0.2919,0.2999,0.3156,0.3148,0.3247,0.318,0.3152,0.3162,0.3373,0.3268,0.3288,0.3314,0.3173,0.3098,0.2978,0.2982,0.2986,0.2989,0.2991,0,0.2328,0.2361,0.2413,0.2479,0.2481,0.2597,0.2662,0.2635,0.2611,0.2711,0.2749,0.2561,0.2501,0.2625,0.252,0.2551,0.2521,0.2474,0.2414,0.2475,0.2529,0.2345,0.1933,0.1929,0.1926,0.1923,0,0,0.2305,0.2307,0.2321,0.2286,0.2339,0.2329,0.233,0.2261,0.2273,0.218,0.2166,0.2332,0.2499,0.2149,0.214,0.2015,0.2215,0.1937,0.279,0.2776,0.2825,0.2999,0.2787,0,0,0,0,0]},{"header":{"parameterUnit":"m.s-1","parameterCategory":2,"la1":30.2991,"la2":30.254,"lo1":-89.0895,"lo2":-89.0444,"dy":0.0017,"dx":0.0017,"nx":28,"ny":28,"refTime":"2024-05-27T21:00:00:Z","depth":"2","parameterNumber":3,"parameterNumberName":"V-component_of_CURRENTS"},"data":[0,0,0,0,0,0,0,0,0,0,0,0,0,0,0,0,0,0,0,0,0,0,0,0,0,0,0,0,0,0,0,0,0,0,0,0,0,0,0,0,0,0,0,0,0,0,0,0,0,0,0,0,0,0,0,0,0,0,-0.0013,-0.0013,0,-0.0009,-0.0009,-0.0009,-0.0033,-0.0034,-0.0035,-0.0035,-0.0337,-0.0344,-0.0352,0,0,0,0,0,0,0,0,0,0,0,0,0,0.0012,0.0012,-0.0013,-0.0013,-0.0013,-0.0009,-0.0009,-0.0009,-0.0033,-0.0034,-0.0035,-0.0036,-0.0335,-0.0344,-0.0352,0,0,0,0,0,0,0,0,0,0,0,0,0,0.0008,0.0011,-0.0013,-0.0026,-0.0027,-0.0009,-0.0009,-0.0009,-0.0033,-0.0034,-0.0035,-0.0036,-0.0332,-0.0343,-0.0354,-0.0397,0,0,-0.0387,-0.0392,0,0,0,0,0,0,0,0,0.0008,0.0007,-0.0024,-0.0025,-0.0026,-0.0024,-0.011,-0.0154,-0.0032,-0.0029,-0.0035,-0.0037,-0.0261,-0.0278,-0.0268,-0.0411,-0.0424,-0.0388,-0.0395,-0.0399,-0.0402,0,0,0,0,0,0,0,0.0009,0.0007,-0.0011,-0.0024,-0.0025,-0.0013,-0.0015,-0.0117,-0.0143,-0.003,-0.0032,-0.0033,-0.0264,-0.0257,-0.0276,-0.0429,-0.0388,-0.0397,-0.0404,-0.0408,-0.0678,-0.0678,0,0,0,0,0,0,0.0004,0.0007,-0.0011,-0.0011,-0.0013,-0.0013,-0.0015,-0.0022,-0.0136,-0.0152,-0.0032,-0.0034,-0.0238,-0.0263,-0.0288,-0.0423,-0.0399,-0.0409,-0.0416,-0.0677,-0.0678,-0.0679,0,0,0,0,0,0,0.0005,0.0002,-0.0011,-0.0002,-0.0003,-0.0013,-0.002,-0.0022,-0.0022,-0.0134,-0.0156,-0.0031,-0.024,-0.0272,-0.0383,-0.0433,-0.0414,-0.0424,-0.0677,-0.0678,-0.0678,-0.0647,0,0,0,0,0,0,0.0005,0.0002,0.0004,-0.0003,-0.0004,0.0015,-0.0019,-0.0021,-0.0021,-0.0024,-0.0142,-0.0169,-0.0243,-0.0366,-0.0394,-0.0448,-0.0433,-0.0676,-0.0677,-0.0678,-0.0647,-0.0647,-0.0646,0,0,0,0,0,0.0006,0.0016,0.0003,0.0002,-0.0005,0.0017,0.0019,0.0008,-0.002,-0.0001,-0.0099,-0.0166,-0.0393,-0.0376,-0.0408,-0.0466,-0.0675,-0.0677,-0.0678,-0.0647,-0.0647,-0.0646,0,0,0,0,0,0,0.0029,0.0014,0.0,0.0004,0.0015,0.0012,0.0027,0.001,-0.0042,-0.0068,-0.0178,-0.0212,-0.0335,-0.039,-0.0367,-0.0541,-0.0545,-0.0552,-0.051,-0.0511,-0.051,-0.0451,-0.0442,0,0,0,0,0,0.0034,0.003,0.0029,0.0031,0.004,0.0031,0.0037,0.0027,-0.0021,-0.0041,-0.0135,-0.0245,-0.036,-0.0424,-0.0522,-0.0616,-0.0609,-0.0671,-0.067,-0.0669,-0.064,-0.0662,-0.066,-0.0683,-0.0683,-0.0683,0,0,0.0041,0.0031,0.0029,0.0035,0.004,0.0045,0.0033,0.0045,0.0009,-0.0077,-0.0167,-0.0256,-0.0384,-0.0492,-0.0551,-0.055,-0.0656,-0.0671,-0.067,-0.064,-0.0663,-0.066,-0.0658,-0.0684,-0.0684,-0.0684,0,0,0.0075,0.0051,0.0076,0.0083,0.0091,0.0064,0.0067,0.0053,0.0014,-0.0073,-0.0157,-0.0243,-0.0423,-0.0495,-0.0568,-0.0617,-0.0656,-0.0674,-0.0631,-0.0653,-0.065,-0.0648,-0.0616,-0.0611,-0.067,-0.067,-0.067,0,0.009,0.011,0.0091,0.012,0.0111,0.0069,0.0085,0.0037,-0.0024,-0.0062,-0.0107,-0.0312,-0.042,-0.0537,-0.0559,-0.0618,-0.0616,-0.0629,-0.065,-0.0647,-0.0646,-0.0613,-0.0608,-0.0668,-0.0669,-0.0669,-0.0669,0,0.0143,0.0164,0.0182,0.0174,0.0157,0.0171,0.0098,0.0051,-0.0033,-0.0076,-0.0196,-0.0312,-0.0417,-0.0484,-0.0555,-0.0607,-0.0603,-0.0649,-0.0644,-0.0641,-0.0607,-0.0603,-0.0666,-0.0667,-0.0667,-0.0668,0,0,0.0167,0.0213,0.0219,0.0238,0.0186,0.0182,0.0089,0.0028,-0.0002,-0.0113,-0.015,-0.0343,-0.0364,-0.0441,-0.0525,-0.0548,-0.0544,-0.0589,-0.0591,-0.0541,-0.0552,-0.0544,-0.0537,-0.0603,-0.0603,-0.0602,-0.0525,0,0.0223,0.0301,0.0272,0.0292,0.0324,0.0227,0.0159,0.0077,-0.0012,-0.0061,-0.0188,-0.0258,-0.0368,-0.0398,-0.0452,-0.0528,-0.0534,-0.0557,-0.0575,-0.0573,-0.0555,-0.0533,-0.0511,-0.0442,-0.052,-0.052,-0.0519,0,0.0279,0.0328,0.0386,0.038,0.0379,0.0354,0.0249,0.0189,0.0085,0.0025,-0.0061,-0.0141,-0.0226,-0.0297,-0.0405,-0.042,-0.0472,-0.0515,-0.0515,-0.0509,-0.0557,-0.0464,-0.043,-0.0511,-0.0512,-0.0512,-0.0513,0,0.0319,0.0385,0.0428,0.0432,0.0416,0.0389,0.0337,0.0235,0.0208,0.0114,0.0131,-0.0022,-0.0038,-0.0171,-0.0306,-0.035,-0.0378,-0.0454,-0.0478,-0.0476,-0.0457,-0.0454,-0.0482,-0.0482,-0.0482,-0.0483,-0.0483,0,0.0372,0.0413,0.0474,0.0502,0.0546,0.0474,0.0476,0.0405,0.0352,0.038,0.0216,0.0244,-0.0002,-0.007,-0.0233,-0.033,-0.0328,-0.0439,-0.0458,-0.0444,-0.0442,-0.0514,-0.0519,-0.048,-0.048,-0.0481,-0.0481,0,0.0407,0.0452,0.0524,0.0559,0.0582,0.0598,0.0595,0.0606,0.0548,0.0588,0.0577,0.047,0.038,0.0157,-0.0011,-0.0177,-0.0311,-0.0337,-0.028,-0.0295,-0.0403,-0.0407,-0.0351,-0.035,-0.0349,-0.0348,-0.0348,0,0.0436,0.049,0.0588,0.0648,0.0676,0.0714,0.0752,0.0703,0.0735,0.0748,0.0803,0.0741,0.0695,0.0445,0.0137,-0.012,-0.0192,-0.0242,-0.0341,-0.0366,-0.0391,-0.0396,-0.0401,-0.0287,-0.0286,-0.0285,-0.0285,0,0.0495,0.0529,0.0593,0.0735,0.0814,0.0894,0.0954,0.1021,0.0992,0.1057,0.113,0.1101,0.0869,0.059,0.0231,0.0048,-0.0227,-0.0231,-0.0264,-0.0337,-0.0304,-0.033,-0.0337,-0.0278,-0.0278,-0.0279,-0.0279,-0.0279,0.0535,0.0598,0.0696,0.0819,0.0926,0.1054,0.1122,0.1207,0.1308,0.137,0.1358,0.1305,0.0999,0.0522,0.022,-0.011,-0.011,-0.0254,-0.0257,-0.0261,-0.0281,-0.0251,-0.0213,-0.0213,-0.0214,-0.0214,-0.0214,0,0.0597,0.0666,0.0775,0.0925,0.1042,0.1087,0.1246,0.1308,0.146,0.1504,0.1527,0.1238,0.0942,0.059,0.0111,-0.0168,-0.022,-0.0254,-0.0273,-0.0277,-0.0281,-0.0305,-0.0242,-0.0242,-0.0243,-0.0244,0,0,0.0636,0.0745,0.0806,0.101,0.1105,0.1267,0.1364,0.1467,0.1523,0.1567,0.1516,0.1407,0.1011,0.0658,0.0286,0.0018,-0.0069,-0.0032,0.0022,0.0041,0.004,-0.0244,-0.0279,0,0,0,0,0]}],[{"header":{"parameterUnit":"m.s-1","parameterCategory":2,"la1":30.2991,"la2":30.254,"lo1":-89.0895,"lo2":-89.0444,"dy":0.0017,"dx":0.0017,"nx":28,"ny":28,"refTime":"2024-05-27T21:00:00:Z","depth":"4","parameterNumber":2,"parameterNumberName":"U-component_of_CURRENTS"},"data":[0,0,0,0,0,0,0,0,0,0,0,0,0,0,0,0,0,0,0,0,0,0,0,0,0,0,0,0,0,0,0,0,0,0,0,0,0,0,0,0,0,0,0,0,0,0,0,0,0,0,0,0,0,0,0,0,0,0,0.1259,0.1259,0,0.1184,0.1183,0.1182,0.1195,0.1197,0.1199,0.12,0.1144,0.1141,0.1138,0,0,0,0,0,0,0,0,0,0,0,0,0,0.1338,0.1337,0.1259,0.1259,0.1258,0.1184,0.1183,0.1181,0.1195,0.1197,0.1199,0.1201,0.1145,0.1142,0.1138,0,0,0,0,0,0,0,0,0,0,0,0,0,0.1283,0.1336,0.1259,0.126,0.1259,0.1185,0.1183,0.1181,0.1194,0.1197,0.12,0.1202,0.1147,0.1142,0.1137,0.1055,0,0,0.1123,0.1121,0,0,0,0,0,0,0,0,0.1286,0.128,0.126,0.126,0.1259,0.1206,0.119,0.1142,0.1194,0.1214,0.12,0.1203,0.1168,0.1162,0.1134,0.1053,0.105,0.1123,0.112,0.1118,0.1116,0,0,0,0,0,0,0,0.129,0.1283,0.1225,0.1259,0.1259,0.1238,0.1233,0.118,0.1173,0.1212,0.1214,0.1213,0.1168,0.1139,0.1133,0.1049,0.1123,0.1119,0.1116,0.1114,0.112,0.1123,0,0,0,0,0,0,0.131,0.1286,0.1227,0.1223,0.1285,0.1235,0.1229,0.1216,0.1174,0.1171,0.121,0.1214,0.1146,0.1139,0.1132,0.1173,0.1118,0.1113,0.1111,0.1117,0.1121,0.1124,0,0,0,0,0,0,0.1311,0.1305,0.123,0.1258,0.1248,0.1232,0.1216,0.1214,0.1228,0.1173,0.117,0.1235,0.1147,0.1138,0.1124,0.1166,0.1111,0.1107,0.1114,0.1119,0.1123,0.1165,0,0,0,0,0,0,0.1314,0.1305,0.1314,0.1258,0.1247,0.1214,0.1214,0.121,0.1223,0.1228,0.1191,0.1187,0.1149,0.1132,0.112,0.1159,0.1103,0.111,0.1116,0.1121,0.116,0.1171,0.118,0,0,0,0,0,0.1316,0.1288,0.1314,0.1308,0.1255,0.1214,0.1206,0.12,0.1223,0.1225,0.1211,0.119,0.1162,0.1128,0.1114,0.1153,0.1107,0.1114,0.1121,0.1156,0.1169,0.118,0,0,0,0,0,0,0.1321,0.1286,0.1313,0.1279,0.1276,0.122,0.1214,0.1221,0.1207,0.1226,0.1185,0.1177,0.1198,0.1171,0.1135,0.1183,0.1148,0.1152,0.118,0.1191,0.1201,0.1254,0.1099,0,0,0,0,0,0.1331,0.1313,0.1292,0.1278,0.1276,0.1261,0.1252,0.1256,0.1231,0.1231,0.1206,0.1203,0.1203,0.1195,0.1183,0.1169,0.1194,0.1205,0.1215,0.1223,0.1264,0.1342,0.1363,0.1146,0.1146,0.1146,0,0,0.1345,0.1314,0.1317,0.1282,0.1276,0.1262,0.1261,0.1257,0.127,0.1223,0.123,0.1227,0.1213,0.1219,0.1228,0.1202,0.1293,0.1232,0.1238,0.1276,0.1352,0.1372,0.1391,0.1151,0.115,0.1149,0,0,0.1336,0.1328,0.1319,0.1304,0.1301,0.1282,0.1297,0.1272,0.1295,0.1286,0.1292,0.1288,0.1275,0.1261,0.1257,0.1307,0.1349,0.1362,0.1433,0.1507,0.1525,0.1542,0.157,0.1589,0.1357,0.1358,0.1358,0,0.1367,0.1332,0.1315,0.1293,0.1287,0.13,0.1298,0.1304,0.1288,0.1322,0.1307,0.1339,0.1279,0.1327,0.1359,0.132,0.1407,0.1373,0.1518,0.1536,0.1552,0.1577,0.1597,0.136,0.136,0.136,0.136,0,0.1343,0.1331,0.1316,0.1301,0.1294,0.1285,0.1298,0.1314,0.1338,0.1368,0.1441,0.1384,0.1423,0.1406,0.1388,0.1507,0.1544,0.1523,0.148,0.1576,0.1596,0.1616,0.1365,0.1364,0.1363,0.1362,0,0,0.1371,0.1318,0.132,0.1316,0.1298,0.1284,0.1313,0.1351,0.1414,0.1433,0.1521,0.1501,0.1558,0.1564,0.1563,0.1606,0.1722,0.1655,0.1658,0.167,0.1935,0.18,0.1808,0.1791,0.1796,0.18,0.1891,0,0.1375,0.1334,0.1309,0.1299,0.1281,0.1289,0.1308,0.1359,0.1428,0.1513,0.1549,0.163,0.1607,0.1655,0.171,0.1713,0.1792,0.1701,0.1856,0.1859,0.1716,0.1832,0.1815,0.1905,0.191,0.1913,0.1916,0,0.1358,0.1328,0.1317,0.1291,0.1291,0.1295,0.1354,0.1389,0.1524,0.1583,0.1716,0.1805,0.1875,0.1851,0.1954,0.1943,0.1994,0.1984,0.1987,0.1872,0.1764,0.1802,0.1952,0.1949,0.1946,0.1944,0.1942,0,0.1358,0.1327,0.132,0.1308,0.129,0.131,0.1327,0.1432,0.15,0.1692,0.1797,0.1924,0.1999,0.2084,0.2102,0.2087,0.2224,0.215,0.2083,0.2071,0.214,0.2121,0.2307,0.2307,0.2307,0.2306,0.2306,0,0.1326,0.1319,0.1326,0.1311,0.1328,0.133,0.141,0.1453,0.1583,0.1688,0.1888,0.1995,0.21,0.2204,0.2196,0.2197,0.2301,0.214,0.2111,0.2149,0.2132,0.2151,0.2132,0.231,0.2309,0.2308,0.2308,0,0.1301,0.1305,0.1291,0.13,0.1321,0.1342,0.142,0.1468,0.163,0.1781,0.1864,0.2085,0.2191,0.2278,0.2351,0.2286,0.2276,0.2283,0.2327,0.2291,0.2049,0.2031,0.2175,0.2171,0.2168,0.2166,0.2164,0,0.1268,0.1263,0.1297,0.1305,0.1311,0.1362,0.1379,0.1474,0.1535,0.1798,0.1847,0.2089,0.2215,0.222,0.2283,0.2285,0.228,0.2274,0.2168,0.2091,0.2049,0.2035,0.2022,0.2159,0.2159,0.2158,0.2157,0,0.12,0.1237,0.1229,0.1263,0.128,0.1304,0.1353,0.1384,0.1507,0.1693,0.1822,0.1944,0.2088,0.2124,0.2202,0.2181,0.224,0.2243,0.2247,0.2147,0.2073,0.2031,0.2022,0.2147,0.2149,0.2149,0.215,0,0.1164,0.115,0.1165,0.1184,0.1216,0.1211,0.1253,0.1296,0.1366,0.1624,0.1642,0.1882,0.204,0.2077,0.2099,0.211,0.2059,0.1975,0.1992,0.2004,0.1907,0.1787,0.1788,0,0,0,0,0,0.1109,0.1074,0.1077,0.107,0.1105,0.1132,0.1201,0.1245,0.1383,0.142,0.1525,0.1644,0.1763,0.187,0.1844,0.2004,0.205,0.1963,0.1957,0.2091,0.2103,0.2004,0,0,0,0,0,0,0.1057,0.1049,0.1034,0.0979,0.0972,0.0985,0.1027,0.1119,0.1145,0.132,0.1389,0.1546,0.1674,0.1767,0.1819,0.1846,0.1805,0.2084,0.2079,0.2085,0.2095,0.2105,0.2007,0,0,0,0,0]},{"header":{"parameterUnit":"m.s-1","parameterCategory":2,"la1":30.2991,"la2":30.254,"lo1":-89.0895,"lo2":-89.0444,"dy":0.0017,"dx":0.0017,"nx":28,"ny":28,"refTime":"2024-05-27T21:00:00:Z","depth":"4","parameterNumber":3,"parameterNumberName":"V-component_of_CURRENTS"},"data":[0,0,0,0,0,0,0,0,0,0,0,0,0,0,0,0,0,0,0,0,0,0,0,0,0,0,0,0,0,0,0,0,0,0,0,0,0,0,0,0,0,0,0,0,0,0,0,0,0,0,0,0,0,0,0,0,0,0,0.0178,0.0178,0,0.0237,0.0238,0.0239,0.0234,0.0233,0.0232,0.0231,0.0316,0.0319,0.0322,0,0,0,0,0,0,0,0,0,0,0,0,0,0.0138,0.0138,0.0178,0.0178,0.0179,0.0237,0.0238,0.0239,0.0234,0.0233,0.0232,0.023,0.0315,0.0318,0.0322,0,0,0,0,0,0,0,0,0,0,0,0,0,0.0173,0.0138,0.0177,0.0182,0.0183,0.0237,0.0238,0.0239,0.0234,0.0233,0.0231,0.023,0.0313,0.0318,0.0323,0.0384,0,0,0.0338,0.034,0,0,0,0,0,0,0,0,0.0171,0.0175,0.0181,0.0182,0.0183,0.0225,0.0255,0.0289,0.0235,0.0217,0.0231,0.0229,0.0288,0.0295,0.0311,0.0388,0.0392,0.0338,0.0341,0.0343,0.0344,0,0,0,0,0,0,0,0.0168,0.0173,0.0203,0.0182,0.0183,0.0208,0.0211,0.0262,0.0262,0.0218,0.0217,0.0222,0.0289,0.0307,0.0313,0.0393,0.0338,0.0342,0.0345,0.0347,0.0469,0.047,0,0,0,0,0,0,0.0156,0.017,0.0201,0.0204,0.0171,0.021,0.0213,0.0215,0.0261,0.0266,0.0223,0.0222,0.0299,0.0308,0.0316,0.0388,0.0343,0.0348,0.035,0.0469,0.047,0.047,0,0,0,0,0,0,0.0155,0.0158,0.0198,0.0188,0.0194,0.0211,0.0214,0.0217,0.0238,0.0264,0.027,0.0242,0.0298,0.0309,0.0377,0.0391,0.035,0.0354,0.0469,0.0469,0.047,0.0535,0,0,0,0,0,0,0.0153,0.0157,0.0171,0.0187,0.0194,0.0243,0.0215,0.0219,0.0243,0.0241,0.0283,0.0288,0.0298,0.037,0.0382,0.0397,0.0358,0.0468,0.0469,0.047,0.0532,0.0537,0.0542,0,0,0,0,0,0.0152,0.0183,0.0171,0.0176,0.0207,0.0245,0.0252,0.026,0.0245,0.0271,0.0297,0.0287,0.038,0.0376,0.039,0.0406,0.0468,0.0469,0.0469,0.053,0.0536,0.0542,0,0,0,0,0,0,0.0176,0.0185,0.0173,0.0205,0.0224,0.0243,0.0271,0.0271,0.0312,0.031,0.0325,0.0335,0.0388,0.0392,0.0387,0.0436,0.041,0.0413,0.0451,0.0457,0.0462,0.046,0.0362,0,0,0,0,0,0.0185,0.0206,0.0215,0.024,0.0249,0.026,0.0279,0.0282,0.0311,0.0327,0.036,0.038,0.0403,0.0427,0.0453,0.0511,0.0462,0.0516,0.0521,0.0525,0.0529,0.046,0.0459,0.0472,0.0472,0.0472,0,0,0.0191,0.0208,0.0214,0.0247,0.0258,0.0298,0.0269,0.0301,0.034,0.0333,0.0409,0.0412,0.0421,0.0471,0.0492,0.0479,0.0495,0.0526,0.053,0.0532,0.0461,0.0459,0.0458,0.0473,0.0473,0.0473,0,0,0.0229,0.0236,0.0265,0.0296,0.0324,0.0335,0.0345,0.0376,0.0393,0.0463,0.0446,0.0446,0.053,0.0508,0.0511,0.0557,0.0523,0.0576,0.0612,0.0545,0.0543,0.0541,0.0476,0.0467,0.058,0.058,0.058,0,0.0239,0.0281,0.0283,0.0334,0.0366,0.0353,0.0401,0.0427,0.048,0.0492,0.0494,0.0534,0.0529,0.0545,0.0559,0.0564,0.0541,0.0595,0.0551,0.0548,0.0544,0.0478,0.0467,0.0583,0.0583,0.0582,0.0582,0,0.0297,0.0344,0.037,0.0422,0.046,0.0502,0.0527,0.0557,0.0569,0.0583,0.0611,0.0602,0.0609,0.0603,0.061,0.059,0.0586,0.0564,0.0537,0.0547,0.0476,0.0464,0.0588,0.0587,0.0586,0.0585,0,0,0.0287,0.0387,0.04,0.0445,0.0512,0.0546,0.0601,0.0637,0.0654,0.0686,0.0703,0.071,0.068,0.0678,0.0658,0.0611,0.0552,0.0604,0.0599,0.0542,0.0429,0.04,0.0384,0.0549,0.0547,0.0546,0.0388,0,0.033,0.0437,0.0479,0.058,0.0633,0.0653,0.0708,0.0736,0.0749,0.0767,0.0718,0.0734,0.0719,0.0714,0.0667,0.0583,0.0527,0.0597,0.0426,0.042,0.0395,0.037,0.0541,0.0379,0.0376,0.0374,0.0373,0,0.0375,0.0447,0.0549,0.0656,0.0678,0.0738,0.0789,0.0844,0.0847,0.0847,0.0832,0.0804,0.0745,0.072,0.0576,0.0641,0.0548,0.0473,0.0464,0.0407,0.037,0.0366,0.035,0.0352,0.0354,0.0355,0.0357,0,0.0369,0.0498,0.0579,0.0623,0.0733,0.0775,0.0833,0.0864,0.0898,0.0895,0.0888,0.0828,0.0786,0.0674,0.0535,0.0561,0.0364,0.0353,0.0232,0.0228,0.0274,0.0278,0.0232,0.0232,0.0232,0.0233,0.0233,0,0.0406,0.0477,0.0586,0.0641,0.0734,0.0808,0.0888,0.0916,0.0944,0.0969,0.0937,0.0906,0.078,0.0662,0.0536,0.0349,0.0347,0.0229,0.0183,0.0305,0.0314,0.0264,0.027,0.0227,0.0228,0.0229,0.023,0,0.0397,0.0468,0.0571,0.0694,0.0741,0.0813,0.0941,0.0982,0.1007,0.1027,0.1025,0.0948,0.0791,0.0644,0.043,0.0336,0.0156,0.0088,0.0228,0.0194,0.0065,0.0076,-0.0074,-0.0077,-0.0079,-0.008,-0.0082,0,0.0407,0.0457,0.06,0.0663,0.0731,0.0849,0.0924,0.1004,0.1044,0.1039,0.1032,0.0905,0.083,0.051,0.0355,0.0093,0.0066,-0.0019,0.003,0.0061,0.0031,0.0046,0.0059,-0.0085,-0.0086,-0.0086,-0.0087,0,0.0423,0.0463,0.0545,0.0672,0.0771,0.0881,0.0994,0.101,0.108,0.1095,0.1013,0.0868,0.0689,0.0476,0.0284,0.0099,0.0043,-0.004,-0.0037,0.0008,0.0046,0.0022,0.0038,-0.0094,-0.0093,-0.0092,-0.0092,0,0.0426,0.0473,0.0574,0.0685,0.08,0.0886,0.0947,0.0997,0.104,0.1035,0.0992,0.0825,0.0743,0.0474,0.0286,0.0113,0.007,0.0032,0.0031,0.0037,0.0129,0.0197,0.0053,0,0,0,0,0,0.0436,0.0492,0.0587,0.0707,0.0808,0.0882,0.0983,0.1028,0.1075,0.1017,0.1011,0.0843,0.0571,0.0457,0.0273,0.0232,0.0033,0.001,-0.0013,-0.0133,-0.0125,-0.0037,0,0,0,0,0,0,0.0447,0.0529,0.0582,0.0704,0.0776,0.0895,0.0957,0.0983,0.096,0.0971,0.0826,0.0794,0.0527,0.0668,0.0265,0.0215,0.0175,-0.0101,-0.0105,-0.0137,-0.013,-0.0123,-0.0031,0,0,0,0,0]}]]